Location: ?????????
(38.5999°N, 22.7695°E)
Time: 11:14:53
(UTC+00:00)

Cosmos 405 Rocket - Pass Details

Date: 23 May 2024
Orbit: 456 x 502 km, 81.3° (Epoch: 23 June)

Event Time Altitude Azimuth Distance (km) Brightness Sun altitude
Rises 01:37:59 0° 353° (N) 2,519 6.7 -15.6°
Reaches altitude 10° 01:40:05 10° 356° (N) 1,646 5.8 -15.3°
Maximum altitude 01:43:40 71° 81° (E) 510 2.8 -14.8°
Drops below altitude 10° 01:47:18 10° 165° (SSE) 1,661 5.0 -14.3°
Enters shadow 01:48:07 - 167° (SSE) 2,006 5.4 -14.1°
